Home > Weather > Rostov-on-Don > Past weeks

Flag for Russia Weather for the Past 2 Weeks in Rostov-on-Don, Russia

Now
41 °F

Cloudy.


Feels Like: 35 °F
Forecast: 40 / 51 °F
Wind: 10 mph from Southwest

Location: Rostov-Na-Donu

Current Time: Feb 13, 2016 at 8:51:38 AM

Latest Report: Feb 13, 2016 at 8:30 AM


Visibility: 4 mi

Pressure: 30.01 "Hg

Humidity: 93%

Dew point: 39 °F

Location of Rostov-on-DonLocation

Historic Weather in Rostov-on-Don — Graph

°F

Rostov-on-Don Temperature Yesterday

Maximum temperature yesterday: 43 °F (at 3:00 PM)
Minimum temperature yesterday: 36 °F (at 12:00 AM)
Average temperature yesterday: 40 °F

High & Low Weather Summary for the Past Weeks

 TemperatureHumidityPressure
High54 °F (Feb 4, 4:30 PM)100% (Jan 29, 10:00 AM)30.54 "Hg (Jan 29, 10:00 AM)
Low18 °F (Feb 8, 8:00 AM)58% (Feb 4, 1:00 PM)29.77 "Hg (Feb 4, 8:30 PM)
Average35 °F86%30.14 "Hg
* Reported Jan 29 8:00 AM — Feb 13 8:00 AM, Rostov-on-Don, Weather by CustomWeather, © 2016

Note: Actual official high and low records may vary slightly from our data, if they occured in-between our weather recording intervals... More about our weather records

Advertising

Rostov-on-Don Weather History for the Previous 24 Hours

 ConditionsComfort  
Time TempWeatherWind HumidityBarometerVisibility
8:00 AM
Sat, Feb 13
41 °FOvercast.8 mph93%30.01 "Hg5 mi
7:00 AM39 °FMostly cloudy.8 mph93%29.98 "Hg4 mi
6:30 AM39 °FMostly cloudy.6 mph93%29.98 "Hg4 mi
6:00 AM37 °FOvercast.6 mph100%30.01 "Hg4 mi
5:00 AM37 °FSprinkles. Overcast.8 mph100%30.01 "Hg2 mi
4:30 AM37 °FSprinkles. Overcast.8 mph100%30.01 "Hg3 mi
4:00 AM37 °FSprinkles. Overcast.10 mph100%29.98 "Hg2 mi
3:30 AM37 °FSprinkles. Overcast.15 mph100%30.01 "Hg3 mi
3:00 AM37 °FSprinkles. Overcast.17 mph100%30.01 "Hg4 mi
2:30 AM37 °FSprinkles. Overcast.17 mph100%30.01 "Hg3 mi
2:00 AM39 °FSprinkles. Overcast.20 mph93%30.01 "Hg4 mi
1:30 AM39 °FSprinkles. Overcast.20 mph93%30.01 "Hg4 mi
1:00 AM39 °FSprinkles. Overcast.17 mph93%30.04 "HgN/A
12:30 AM39 °FSprinkles. Overcast.15 mph93%30.04 "HgN/A
12:00 AM39 °FSprinkles. Overcast.13 mph93%30.07 "Hg5 mi
11:30 PM
Fri, Feb 12
39 °FSprinkles. Overcast.13 mph100%30.07 "Hg5 mi
11:00 PM41 °FSprinkles. Overcast.10 mph93%30.09 "Hg4 mi
10:30 PM41 °FSprinkles. Overcast.10 mph93%30.09 "Hg3 mi
10:00 PM41 °FSprinkles. Overcast.10 mph93%30.09 "Hg3 mi
9:30 PM41 °FSprinkles. Mostly cloudy.10 mph93%30.09 "Hg4 mi
9:00 PM41 °FSprinkles. Mostly cloudy.10 mph93%30.09 "HgN/A
8:30 PM41 °FSprinkles. Mostly cloudy.10 mph93%30.09 "Hg3 mi
8:00 PM41 °FSprinkles. Mostly cloudy.8 mph93%30.09 "Hg4 mi
7:30 PM41 °FSprinkles. Mostly cloudy.8 mph93%30.12 "Hg3 mi
7:00 PM41 °FSprinkles. Mostly cloudy.8 mph93%30.12 "Hg4 mi
6:30 PM41 °FSprinkles. More clouds than sun.8 mph93%30.12 "Hg4 mi
6:00 PM43 °FSprinkles. More clouds than sun.8 mph87%30.12 "Hg4 mi
5:30 PM43 °FSprinkles. Broken clouds.8 mph81%30.12 "HgN/A
5:00 PM43 °FBroken clouds.3 mph81%30.12 "HgN/A
4:30 PM43 °FPartly sunny.3 mph81%30.12 "HgN/A
4:00 PM43 °FPartly sunny.1 mph81%30.12 "HgN/A
3:30 PM43 °FBroken clouds.1 mph81%30.12 "HgN/A
3:00 PM43 °FBroken clouds.6 mph81%30.12 "HgN/A
2:30 PM41 °FBroken clouds.3 mph87%30.12 "Hg4 mi
2:00 PM39 °FBroken clouds.3 mph87%30.12 "Hg4 mi
1:30 PM39 °FFog.6 mph93%30.12 "Hg3 mi
1:00 PM41 °FBroken clouds.1 mph87%30.12 "Hg4 mi
12:30 PM41 °FPartly sunny.1 mph87%30.12 "Hg4 mi
12:00 PM39 °FFog.6 mph87%30.12 "Hg2 mi
11:30 AM37 °FFog.3 mph93%30.12 "Hg2 mi
11:00 AM39 °FFog.6 mph93%30.12 "Hg3 mi
10:30 AM39 °FFog.6 mph93%30.12 "Hg2 mi
10:00 AM39 °FFog.8 mph93%30.09 "Hg3 mi
9:30 AM39 °FFog.10 mph93%30.09 "Hg3 mi
9:00 AM39 °FFog.10 mph93%30.09 "Hg3 mi
8:30 AM37 °FFog.6 mph93%30.09 "Hg3 mi
8:00 AM37 °FFog.3 mph93%30.07 "Hg3 mi
Weather by CustomWeather, © 2016

See weather overviewHow to use our weather pages